Date String (YYYY-MM-DD hh:mm:ss) UTC,Instrument flags,absolute air pressure of the measurement (hPa),sample flow rate (lpm),inlet stack bypass flow (lpm),air temperature of the measurement (°C),ambient temperature measured by the external sensor (°C),aerosol sample conditioner tube jacket temperature (°C),OPC LED temperature (°C),internal box temperature (°C),relative humidity of the measurement (%),span deviation,mass concentration of particles derived from Lorenz-Mie calculation of OPC scattering (μg/m³),mass concentration of particles derived from Lorenz-Mie calculation of OPC scattering (μg/m³),mass concentration of particles derived from Lorenz-Mie calculation of OPC scattering (μg/m³)
DateTimeUTC,F1_M11,P_M11,Q1_M11,Q2_M11,T1_M11,T2_M11,T3_M11,T4_M11,T5_M11,U1_M11,ZSPAN_M11,X2_M11,X0_M11,X1_M11
2023-08-15 14:00:00,SystemResetWarning,0838.8,5.00,000.00,029.9,028.7,000.0,038.4,031.5,21.9,0001.7,0006.33,0015.12,0005.29
2023-08-15 14:01:00,SystemResetWarning,0838.7,5.00,000.00,029.9,028.8,000.0,038.4,031.5,22.1,0001.6,0006.33,0015.46,0005.28
2023-08-15 14:02:00,SystemResetWarning,0838.8,5.00,000.00,030.0,028.8,000.0,038.5,031.6,22.8,0001.0,0006.33,0015.84,0005.29
2023-08-15 14:03:00,SystemResetWarning,0838.8,5.00,000.00,030.0,028.4,000.0,038.4,031.6,23.5,0001.6,0006.34,0017.00,0005.29
2023-08-15 14:04:00,SystemResetWarning,0838.8,4.99,000.00,029.9,026.6,000.0,038.3,031.3,23.4,0001.5,0006.35,0016.89,0005.29
2023-08-15 14:05:00,SystemResetWarning,0838.8,5.02,000.00,029.8,025.4,000.0,038.2,031.0,23.1,0001.7,0006.28,0016.79,0005.29
2023-08-15 14:06:00,SystemResetWarning,0838.8,5.01,000.00,029.8,025.6,000.0,038.1,030.9,23.4,0001.7,0006.31,0017.07,0005.28
2023-08-15 14:07:00,SystemResetWarning,0838.8,5.00,000.00,029.7,025.9,000.0,038.2,030.8,23.5,0001.5,0006.30,0016.80,0005.28
2023-08-15 14:08:00,SystemResetWarning,0838.8,5.00,000.00,029.6,026.3,000.0,038.2,030.9,24.0,0002.2,0006.28,0016.51,0005.28
2023-08-15 14:09:00,SystemResetWarning,0838.7,5.01,000.00,029.6,026.7,000.0,038.2,031.0,24.0,0002.7,0006.22,0016.44,0005.27
2023-08-15 14:10:00,SystemResetWarning,0838.8,4.99,000.00,029.6,027.0,000.0,038.2,031.0,23.9,0002.3,0006.19,0016.09,0005.27
2023-08-15 14:11:00,SystemResetWarning,0838.8,4.99,000.00,029.6,027.3,000.0,038.2,031.0,24.0,0001.9,0006.21,0015.67,0005.27
2023-08-15 14:12:00,SystemResetWarning,0838.7,5.00,000.00,029.6,027.5,000.0,038.2,031.1,24.1,0001.7,0006.18,0015.45,0005.26
2023-08-15 14:13:00,SystemResetWarning,0838.8,5.01,000.00,029.6,027.7,000.0,038.2,031.1,24.0,0001.2,0006.19,0014.88,0005.27
2023-08-15 14:14:00,SystemResetWarning,0838.8,5.01,000.00,029.6,027.9,000.0,038.2,031.2,24.0,0000.6,0006.20,0013.74,0005.27
2023-08-15 14:15:00,SystemResetWarning,0838.8,5.00,000.00,029.6,028.0,000.0,038.2,031.2,24.2,0000.2,0006.22,0013.54,0005.27
2023-08-15 14:16:00,SystemResetWarning,0838.8,4.99,000.00,029.6,028.1,000.0,038.2,031.2,23.1,0000.1,0006.24,0013.61,0005.27
2023-08-15 14:17:00,SystemResetWarning,0838.8,4.99,000.00,029.6,028.2,000.0,038.2,031.3,23.0,0000.1,0006.24,0013.27,0005.26
2023-08-15 14:18:00,SystemResetWarning,0838.8,5.00,000.00,029.7,028.3,000.0,038.2,031.3,23.5,-000.1,0006.24,0013.40,0005.24
2023-08-15 14:19:00,SystemResetWarning,0838.8,5.00,000.00,029.7,028.4,000.0,038.2,031.3,23.9,-000.4,0006.24,0013.08,0005.23
2023-08-15 14:20:00,SystemResetWarning,0838.8,5.00,000.00,029.7,028.4,000.0,038.2,031.3,23.3,-000.3,0006.24,0012.82,0005.21
2023-08-15 14:21:00,SystemResetWarning,0838.8,5.00,000.00,029.7,028.5,000.0,038.3,031.4,23.0,-000.5,0006.21,0012.59,0005.20
2023-08-15 14:22:00,SystemResetWarning,0838.8,5.00,000.00,029.8,028.5,000.0,038.3,031.4,23.4,-000.4,0006.17,0012.95,0005.18
2023-08-15 14:23:00,SystemResetWarning,0838.8,5.00,000.00,029.8,028.6,000.0,038.3,031.4,23.6,-000.0,0006.13,0013.23,0005.16
2023-08-15 14:24:00,SystemResetWarning,0838.8,5.00,000.00,029.8,028.6,000.0,038.3,031.4,23.5,0000.4,0006.09,0013.00,0005.14
2023-08-15 14:25:00,SystemResetWarning,0838.8,4.99,000.00,029.8,028.1,000.0,038.2,031.4,23.5,0000.5,0006.04,0012.84,0005.11
2023-08-15 14:26:00,SystemResetWarning,0838.8,4.99,000.00,029.8,026.3,000.0,038.1,031.1,23.5,0000.7,0005.97,0012.94,0005.09
2023-08-15 14:27:00,SystemResetWarning,0838.8,5.01,000.00,029.7,025.5,000.0,038.0,030.9,23.1,0000.5,0005.95,0012.61,0005.08
2023-08-15 14:28:00,SystemResetWarning,0838.8,5.01,000.00,029.6,025.7,000.0,038.0,030.8,23.3,0000.3,0005.93,0012.12,0005.06
2023-08-15 14:29:00,SystemResetWarning,0838.8,5.00,000.00,029.5,026.0,000.0,038.0,030.7,23.1,0000.1,0005.92,0012.18,0005.06
2023-08-15 14:30:00,SystemResetWarning,0838.8,4.99,000.00,029.5,026.4,000.0,038.1,030.8,24.2,0000.0,0005.91,0012.41,0005.05
2023-08-15 14:31:00,SystemResetWarning,0838.8,5.00,000.00,029.5,026.7,000.0,038.1,030.9,24.2,-000.1,0005.94,0012.74,0005.06
2023-08-15 14:32:00,SystemResetWarning,0838.8,5.00,000.00,029.4,027.0,000.0,038.1,030.9,23.8,-000.1,0005.96,0013.30,0005.06
2023-08-15 14:33:00,SystemResetWarning,0838.8,5.00,000.00,029.5,027.3,000.0,038.1,031.0,24.1,0000.4,0005.98,0013.17,0005.06
2023-08-15 14:34:00,SystemResetWarning,0838.8,5.00,000.00,029.5,027.5,000.0,038.1,031.0,24.2,0000.4,0005.99,0012.70,0005.06
2023-08-15 14:35:00,SystemResetWarning,0838.8,4.99,000.00,029.5,027.7,000.0,038.1,031.1,24.4,0000.3,0006.00,0012.77,0005.07
2023-08-15 14:36:00,SystemResetWarning,0838.8,4.99,000.00,029.5,027.9,000.0,038.1,031.1,24.3,0000.4,0006.01,0012.83,0005.09
2023-08-15 14:37:00,SystemResetWarning,0838.8,5.00,000.00,029.5,028.0,000.0,038.1,031.1,24.2,0000.6,0006.03,0012.65,0005.09
2023-08-15 14:38:00,SystemResetWarning,0838.8,5.00,000.00,029.5,028.1,000.0,038.1,031.2,24.5,0000.9,0006.08,0012.56,0005.10
2023-08-15 14:39:00,SystemResetWarning,0838.8,5.00,000.00,029.6,028.2,000.0,038.1,031.2,24.5,0000.9,0006.08,0013.07,0005.11
2023-08-15 14:40:00,SystemResetWarning,0838.8,5.01,000.00,029.6,028.3,000.0,038.1,031.3,24.4,0000.9,0006.04,0013.40,0005.12
2023-08-15 14:41:00,SystemResetWarning,0838.8,5.01,000.00,029.6,028.4,000.0,038.1,031.3,24.3,0001.2,0006.07,0014.10,0005.13
2023-08-15 14:42:00,SystemResetWarning,0838.8,5.00,000.00,029.6,028.4,000.0,038.2,031.3,24.3,0001.5,0006.07,0013.59,0005.11
2023-08-15 14:43:00,SystemResetWarning,0838.8,4.99,000.00,029.7,028.5,000.0,038.2,031.3,24.1,0001.3,0006.00,0012.57,0005.08
2023-08-15 14:44:00,SystemResetWarning,0838.8,4.99,000.00,029.7,028.5,000.0,038.2,031.4,24.0,0001.2,0005.96,0012.40,0005.06
2023-08-15 14:45:00,SystemResetWarning,0838.8,5.00,000.00,029.7,028.6,000.0,038.2,031.4,24.0,0001.3,0005.95,0012.38,0005.05
2023-08-15 14:46:00,SystemResetWarning,0838.8,5.00,000.00,029.7,027.8,000.0,038.1,031.3,23.9,0000.9,0005.91,0012.95,0005.04
2023-08-15 14:47:00,SystemResetWarning,0838.8,5.00,000.00,029.7,025.9,000.0,038.0,031.0,24.0,0000.9,0005.89,0014.55,0005.00
2023-08-15 14:48:00,SystemResetWarning,0838.8,5.01,000.00,029.6,025.4,000.0,037.9,030.8,24.0,0001.0,0005.84,0014.51,0004.97
2023-08-15 14:49:00,SystemResetWarning,0838.8,5.01,000.00,029.5,025.7,000.0,037.9,030.7,24.1,0001.2,0005.78,0014.90,0004.95
2023-08-15 14:50:00,SystemResetWarning,0838.8,5.00,000.00,029.4,026.1,000.0,037.9,030.7,24.3,0001.1,0005.76,0014.89,0004.94
2023-08-15 14:51:00,SystemResetWarning,0838.8,5.00,000.00,029.4,026.4,000.0,038.0,030.8,24.6,0001.3,0005.78,0014.59,0004.92
2023-08-15 14:52:00,SystemResetWarning,0838.8,5.00,000.00,029.4,026.8,000.0,038.0,030.9,24.5,0001.4,0005.76,0013.58,0004.90
2023-08-15 14:53:00,SystemResetWarning,0838.8,5.00,000.00,029.4,027.1,000.0,038.0,030.9,24.3,0000.8,0005.70,0013.20,0004.89
2023-08-15 14:54:00,SystemResetWarning,0838.8,5.00,000.00,029.4,027.3,000.0,038.0,031.0,24.4,0001.9,0005.72,0014.07,0004.91
2023-08-15 14:55:00,SystemResetWarning,0838.8,5.00,000.00,029.4,027.6,000.0,038.0,031.0,24.4,0002.1,0005.71,0014.91,0004.91
2023-08-15 14:56:00,SystemResetWarning,0838.8,5.00,000.00,029.4,027.7,000.0,038.0,031.1,24.0,0000.1,0005.70,0015.17,0004.91
2023-08-15 14:57:00,SystemResetWarning,0838.8,5.00,000.00,029.5,027.9,000.0,038.0,031.1,24.1,0001.1,0005.75,0015.78,0004.91
2023-08-15 14:58:00,SystemResetWarning,0838.8,5.00,000.00,029.5,028.0,000.0,038.0,031.2,24.2,0003.0,0005.79,0014.39,0004.92
2023-08-15 14:59:00,SystemResetWarning,0838.8,5.01,000.00,029.5,028.1,000.0,038.0,031.2,23.8,0001.9,0005.82,0014.37,0004.94
